SES-15 (42709 NORAD) Tracking and Keplerian Element Data

This shows tracking and keplerian element data for the satellite.

Feedback or suggestion? Click here.




ElementValue
Catalog42709
NameSES-15
Epoch Orbit1685
Epoch Day268.66105358
Epoch Year2021
RAAN7.7581
Inclination0.017
Eccentricity4.49E-05
Argument of Perigee214.7667
Mean Anonmoly250.999
Mean Motion1.0026952
Decay Rate5.7E-07
L11 42709U 17026A 21268.66105358 .00000057 00000-0 00000-0 0 9993
L22 42709 0.0170 7.7581 0000449 214.7667 250.9990 1.00269520 16859

Live tracking and technical data element details for SES-15 (NORAD 42709). SES-15 can be tracked NOW for your location showing map with azimuth and elevation plus other details from your city location.

Track the satellite on the map from your city or location and see movement details for azimuth, elevation, latitude, longitude, range, height, and movement on the map or in text.







IsCatalogInMostPopularTable: catalog: 42709, numindb: 582
Update: records affected: 1



GetName: 42709 SES-15

Hit Count: updated at: Mon, 27 Sep 2021 00:45:43 GMT